This is the latest recevied weather packets stored in our database for station/object VK3HUG-13. If no packets are shown the sender has not sent any weather packets the latest 10 day(s).
| Time | Temp. | Humidity | Pressure | Rain* | Wind** | Luminosity | Snow |
|---|---|---|---|---|---|---|---|
| 1787702406 | 11.11° C | 77% | 1027.9 hPa | 0 mm | - | - | - |
| 1787701507 | 10.56° C | 80% | 1027.9 hPa | 0 mm | - | - | - |
| 1787700607 | 10° C | 83% | 1028 hPa | 0 mm | - | - | - |
| 1787699707 | 10.56° C | 90% | 1027.9 hPa | 0 mm | - | - | - |
| 1787698807 | 9.44° C | 96% | 1027 hPa | 0 mm | - | - | - |
| 1787697007 | 7.78° C | 100% | 1027.3 hPa | 0 mm | - | - | - |
| 1787695206 | 6.67° C | 1% | 1027.4 hPa | 0 mm | - | - | - |
| 1787694308 | 6.67° C | 1% | 1026.4 hPa | 0 mm | - | - | - |
| 1787693407 | 6.67° C | 1% | 1026.4 hPa | 0 mm | - | - | - |
| 1787692507 | 6.11° C | 1% | 1026.5 hPa | 0 mm | - | - | - |
| 1787691607 | 5.56° C | 1% | 1026.5 hPa | 0 mm | - | - | - |
| 1787690707 | 5.56° C | 2% | 1026.6 hPa | 0 mm | - | - | - |
| 1787689807 | 5.56° C | 1% | 1025.5 hPa | 0 mm | - | - | - |
| 1787688906 | 5.56° C | 1% | 1025.5 hPa | 0 mm | - | - | - |
| 1787688006 | 5.56° C | 1% | 1025.5 hPa | 0 mm | - | - | - |
| 1787687106 | 5.56° C | 1% | 1025.5 hPa | 0 mm | - | - | - |
| 1787686208 | 5.56° C | 1% | 1025.5 hPa | 0 mm | - | - | - |
| 1787685306 | 5.56° C | 1% | 1025.5 hPa | 0 mm | - | - | - |
| 1787684407 | 5.56° C | 1% | 1024.4 hPa | 0 mm | - | - | - |
| 1787683506 | 6.11° C | 1% | 1024.4 hPa | 0 mm | - | - | - |
| 1787682608 | 6.11° C | 1% | 1024.4 hPa | 0 mm | - | - | - |
| 1787681706 | 6.67° C | 1% | 1024.3 hPa | 0 mm | - | - | - |
| 1787680807 | 6.67° C | 1% | 1024.3 hPa | 0 mm | - | - | - |
| 1787679907 | 7.22° C | 1% | 1024.2 hPa | 0 mm | - | - | - |
| 1787679007 | 7.22° C | 1% | 1024.2 hPa | 0 mm | - | - | - |
* Rain latest hour (hover to see other rain measurements)
** Current wind speed in m/s (hover to see current wind gust speed)